DAL1122 KATL-KCHS

Flight info

Callsign DAL1122
Flight time N/A
Altitude 23000
Route GAIRY2 IRQ OSPRI7
Aircraft A319/M-SDE3FGHIRWY/LB1

Departure

Time 2026-05-01 15:17
Airport Hartsfield Jackson Atlanta International Airport (KATL)

Arrival

Time N/A
Airport Charleston International Airport (KCHS)
Time Latitude Longitude Altitude Speed Heading
2026-05-01 15:03 33.63792 -84.43544 1006 ft 0 kts 269°
2026-05-01 15:07 33.63793 -84.43536 997 ft 4 kts 270°
2026-05-01 15:08 33.63791 -84.43504 1009 ft 4 kts 274°
2026-05-01 15:08 33.63790 -84.43471 1006 ft 4 kts 263°
2026-05-01 15:08 33.63795 -84.43451 1006 ft 0 kts 240°
2026-05-01 15:10 33.63794 -84.43451 1006 ft 0 kts 240°
2026-05-01 15:10 33.63745 -84.43459 1006 ft 9 kts 176°
2026-05-01 15:10 33.63682 -84.43460 1006 ft 10 kts 195°
2026-05-01 15:11 33.63660 -84.43528 1006 ft 9 kts 268°
2026-05-01 15:11 33.63665 -84.43695 1006 ft 10 kts 272°
2026-05-01 15:11 33.63665 -84.43784 1006 ft 11 kts 269°
2026-05-01 15:12 33.63664 -84.43876 1006 ft 11 kts 269°
2026-05-01 15:12 33.63665 -84.44068 1007 ft 12 kts 270°
2026-05-01 15:12 33.63665 -84.44166 1007 ft 12 kts 270°
2026-05-01 15:13 33.63647 -84.44477 1006 ft 13 kts 227°
2026-05-01 15:14 33.63573 -84.44490 1007 ft 0 kts 179°
2026-05-01 15:15 33.63549 -84.44489 1007 ft 7 kts 179°
2026-05-01 15:15 33.63471 -84.44440 1007 ft 0 kts 92°
2026-05-01 15:16 33.63470 -84.44090 1007 ft 80 kts 89°
2026-05-01 15:16 33.63476 -84.41839 1250 ft 166 kts 90°
2026-05-01 15:17 33.63463 -84.39060 2800 ft 168 kts 89°
2026-05-01 15:18 33.63427 -84.33998 3911 ft 245 kts 90°
2026-05-01 15:18 33.63405 -84.31847 4396 ft 269 kts 90°
2026-05-01 15:19 33.63353 -84.24756 7081 ft 291 kts 90°
2026-05-01 15:19 33.63374 -84.19846 8941 ft 299 kts 89°
2026-05-01 15:19 33.63389 -84.17319 9794 ft 306 kts 90°
2026-05-01 15:20 33.63395 -84.12014 10932 ft 338 kts 93°
2026-05-01 15:20 33.63101 -84.09126 11224 ft 361 kts 103°
2026-05-01 15:20 33.62380 -84.06157 11565 ft 379 kts 110°
2026-05-01 15:21 33.61549 -84.03116 12190 ft 388 kts 110°
2026-05-01 15:21 33.60719 -84.00036 12849 ft 396 kts 110°
2026-05-01 15:21 33.59869 -83.96858 13543 ft 403 kts 111°
2026-05-01 15:21 33.59007 -83.93631 14157 ft 410 kts 111°
2026-05-01 15:22 33.57236 -83.87007 15265 ft 425 kts 111°
2026-05-01 15:22 33.56323 -83.83606 15811 ft 432 kts 111°
2026-05-01 15:22 33.55392 -83.80152 16386 ft 439 kts 111°
2026-05-01 15:23 33.54446 -83.76648 16948 ft 445 kts 111°
2026-05-01 15:23 33.53486 -83.73087 17509 ft 452 kts 111°
2026-05-01 15:23 33.52843 -83.70699 17888 ft 457 kts 111°
2026-05-01 15:23 33.51787 -83.65693 18569 ft 470 kts 99°
2026-05-01 15:24 33.51577 -83.63100 18889 ft 474 kts 92°
2026-05-01 15:24 33.51688 -83.59133 19424 ft 479 kts 82°
2026-05-01 15:24 33.52216 -83.55178 19989 ft 482 kts 78°
2026-05-01 15:24 33.52782 -83.51201 20548 ft 487 kts 78°
2026-05-01 15:25 33.53348 -83.47172 21020 ft 493 kts 78°
2026-05-01 15:25 33.53913 -83.43093 21506 ft 497 kts 78°
2026-05-01 15:25 33.54472 -83.38988 21977 ft 502 kts 78°
2026-05-01 15:25 33.55032 -83.34844 22443 ft 506 kts 78°
2026-05-01 15:26 33.55597 -83.30662 22877 ft 510 kts 78°
2026-05-01 15:26 33.56173 -83.26443 23029 ft 515 kts 78°
2026-05-01 15:26 33.56763 -83.22151 23059 ft 528 kts 78°
2026-05-01 15:26 33.57358 -83.17831 23053 ft 536 kts 78°
2026-05-01 15:27 33.57963 -83.13413 23049 ft 538 kts 79°
2026-05-01 15:27 33.58561 -83.08979 23055 ft 539 kts 79°
2026-05-01 15:27 33.59156 -83.04531 23053 ft 540 kts 79°
2026-05-01 15:28 33.60343 -82.95639 23045 ft 540 kts 79°
2026-05-01 15:28 33.60939 -82.91191 23040 ft 540 kts 79°
2026-05-01 15:28 33.61535 -82.86748 23034 ft 540 kts 79°
2026-05-01 15:29 33.62728 -82.77855 23039 ft 540 kts 79°
2026-05-01 15:29 33.63318 -82.73399 23050 ft 540 kts 79°
2026-05-01 15:29 33.64485 -82.64490 23066 ft 540 kts 79°
2026-05-01 15:30 33.65648 -82.55639 23073 ft 540 kts 79°
2026-05-01 15:31 33.67971 -82.37822 23038 ft 540 kts 79°
2026-05-01 15:31 33.69119 -82.28890 23041 ft 541 kts 80°
2026-05-01 15:32 33.69983 -82.19930 23027 ft 541 kts 90°
2026-05-01 15:32 33.69003 -82.11035 23025 ft 536 kts 109°
2026-05-01 15:33 33.65188 -81.98489 23027 ft 533 kts 115°
2026-05-01 15:34 33.61274 -81.85984 23038 ft 533 kts 115°